Location: ????? ??????
(37.8317°N, 23.8750°E)
Time: 13:35:56
(UTC+00:00)

Lacrosse 5 - Pass Details

Date: 20 January 2021
Orbit: 715 x 724 km, 57.0° (Epoch: 03 March)

Event Time Altitude Azimuth Distance (km) Brightness Sun altitude
Rises 15:55:28 0° 326° (NNW) 3,121 5.3 -4.6°
Reaches altitude 10° 15:58:46 10° 348° (NNW) 2,199 4.3 -5.2°
Maximum altitude 16:01:52 16° 26° (NNE) 1,818 3.5 -5.8°
Drops below altitude 10° 16:04:58 10° 64° (ENE) 2,196 3.7 -6.3°
Enters shadow 16:05:45 - 71° (ENE) 2,383 3.8 -6.5°
